Location: Lanoux
(43.1180°N, 1.4255°E)
Time: 02:27:23
(UTC+00:00)

Meteor 2-10 - Pass Details

Date: 22 March 2026
Orbit: 736 x 866 km, 81.2° (Epoch: 13 April)

Event Time Altitude Azimuth Distance (km) Brightness Sun altitude
Rises 18:56:32 0° 220° (SW) 3,256 7.7 -9.5°
Reaches altitude 10° 18:59:16 10° 232° (SW) 2,311 7.1 -10.0°
Maximum altitude 19:03:36 27° 289° (WNW) 1,446 6.4 -10.7°
Drops below altitude 10° 19:07:53 10° 347° (NNW) 2,271 6.8 -11.5°
Sets 19:10:33 0° 360° (N) 3,188 7.4 -12.0°
